Theta_e
299 299 299 299 298 297 297 297 296 296 296 296 296 296 296 297 297 297 297 297 298 298 298 300 303 306 310 312 314 317 318 320 321 321 320 322 321 322 321 321 322 322 322
299 299 298 298 296 295 295 295 295 295 295 295 295 295 295 295 296 295 296 296 296 296 297 297 297 298 299 302 306 307 309 313 316 318 320 322 321 321 321 322 320 322 322
297 297 297 296 295 294 293 293 293 294 294 294 294 294 294 295 295 294 294 295 295 295 295 295 295 296 297 297 298 300 304 306 307 311 314 316 316 320 320 321 320 318 320
296 295 295 294 294 293 292 292 292 292 292 293 293 293 293 293 293 293 293 293 293 294 294 294 294 294 294 295 296 296 298 299 301 304 306 308 312 316 319 318 321 319 321
293 293 293 293 291 292 291 291 291 291 291 292 292 291 291 291 291 291 291 291 291 292 292 292 292 292 292 293 293 294 296 296 298 299 301 303 306 309 315 316 318 319 319
297 291 291 291 290 291 290 290 290 290 290 290 290 290 289 289 288 288 288 288 289 289 289 290 290 291 291 292 292 291 293 295 296 298 298 301 301 304 308 312 314 317 318
290 289 289 289 290 290 289 289 289 289 289 288 288 287 287 287 287 287 287 287 287 287 287 288 289 289 289 290 291 291 291 292 294 295 296 297 299 300 303 307 310 313 315
289 288 288 288 288 288 288 288 287 287 287 287 286 286 286 285 286 286 286 287 287 287 286 287 287 287 287 288 289 290 291 292 293 294 295 296 297 299 301 303 306 309 313
287 286 286 286 286 286 286 286 286 286 285 285 284 284 285 284 285 285 285 286 286 286 286 286 287 287 287 287 288 288 290 292 292 293 294 296 297 299 300 302 305 306 308
284 284 285 284 285 285 284 284 284 284 283 283 283 283 283 283 282 281 281 283 284 284 284 285 285 285 286 287 285 287 288 290 290 291 292 296 297 299 301 302 304 306 307
283 283 283 283 284 283 283 283 283 282 281 282 282 282 282 281 281 280 280 280 281 282 282 283 283 283 284 284 285 285 286 288 289 290 292 294 297 299 301 302 304 305 307
282 282 282 282 282 282 282 281 281 281 281 280 280 281 280 280 280 278 279 278 279 280 281 281 281 281 282 282 283 283 285 286 288 289 291 293 294 295 299 301 302 303 305
281 281 281 281 281 281 281 281 280 280 279 278 276 278 279 279 278 277 276 277 279 279 279 280 280 281 281 281 282 282 283 283 284 285 285 287 290 291 293 295 298 299 300
281 281 281 280 280 280 279 279 279 278 277 276 275 274 275 274 274 273 274 276 278 278 279 279 279 280 280 280 281 281 280 280 280 281 283 284 285 287 289 290 292 293 295
280 280 280 280 279 278 277 277 277 276 275 274 273 272 273 272 272 271 271 272 274 277 277 278 279 279 279 279 278 278 278 279 280 280 281 282 283 284 285 286 288 289 291
280 279 278 277 277 277 276 275 273 273 273 272 272 271 271 270 269 269 271 271 272 275 275 276 275 275 274 274 274 275 275 276 276 277 279 280 281 282 284 285 285 287 287
278 277 277 276 276 276 275 274 274 273 272 272 272 272 271 270 270 270 271 271 271 272 272 271 270 270 271 272 272 272 272 273 274 275 276 277 278 279 281 282 283 284 285
276 276 276 276 275 274 273 272 272 271 272 272 271 271 270 270 270 270 270 270 271 271 270 269 268 268 268 268 268 269 271 272 272 273 274 275 276 276 277 279 279 281 282
276 275 275 274 274 272 272 271 271 271 270 270 270 270 270 270 269 269 269 269 269 268 268 268 267 267 267 267 267 267 267 267 269 271 272 272 273 274 275 276 277 278 280
275 275 274 274 273 272 271 270 270 270 269 269 269 269 269 269 269 269 269 268 267 267 267 266 266 266 266 266 266 266 266 267 267 267 268 270 270 271 272 273 274 275 276
275 275 274 273 272 271 270 270 269 269 269 269 269 268 268 267 267 267 267 267 266 266 266 266 266 265 265 265 266 266 266 266 266 266 266 266 266 267 270 271 272 273 274
275 274 274 273 271 270 269 269 269 269 269 269 268 268 268 267 267 267 267 266 266 265 265 265 265 265 265 264 265 265 265 265 265 265 265 265 266 266 266 267 268 270 271
274 274 273 272 271 270 269 268 268 268 268 268 267 267 267 267 267 266 266 266 266 265 265 265 265 265 264 264 264 264 264 264 264 264 264 264 265 265 265 265 266 266 267
274 273 273 271 270 269 269 268 268 268 267 267 267 267 266 266 266 266 265 265 265 265 264 264 264 264 264 264 264 264 264 264 263 263 263 264 263 264 264 264 264 265 265
273 273 272 271 270 269 269 268 268 267 267 267 267 267 266 266 266 265 265 265 265 265 265 264 264 264 264 264 264 263 264 263 263 262 262 262 262 262 263 263 263 263 264
273 272 271 271 270 269 268 268 267 267 267 266 266 266 266 266 265 265 265 265 265 265 264 264 264 264 264 264 263 263 263 263 263 261 260 261 262 262 262 262 262 262 262
Wind_Speed
4 4 6 8 11 13 15 15 14 15 15 16 17 18 19 20 21 22 22 22 23 25 26 29 31 32 36 40 41 41 36 37 45 47 47 40 49 42 42 41 40 43 40
8 9 9 10 11 12 12 13 13 14 15 17 18 19 20 22 23 24 26 27 30 31 31 30 32 33 35 36 37 41 45 45 43 42 36 47 39 46 43 40 45 44 43
8 11 14 14 13 13 12 12 13 14 15 16 17 20 21 22 23 24 26 28 29 31 32 34 36 37 38 38 38 41 43 44 47 49 53 47 44 39 49 42 46 40 36
7 9 10 11 13 13 13 14 14 15 16 16 18 20 21 23 24 26 29 31 33 34 35 36 37 37 38 39 41 42 44 44 45 46 53 50 46 44 40 39 41 43 36
10 11 11 11 10 9 11 12 13 15 16 18 20 21 23 25 26 28 31 34 37 39 40 40 40 40 39 38 38 40 41 44 43 43 49 46 44 45 46 41 35 38 30
12 10 9 9 9 10 11 13 14 16 18 20 22 24 26 28 30 31 32 36 39 41 45 46 45 45 43 43 42 40 38 42 46 42 45 45 49 43 42 47 41 40 36
8 6 7 8 9 11 13 15 16 18 20 22 24 26 28 28 30 32 33 36 38 39 42 47 50 49 47 46 47 48 47 45 44 45 49 51 51 46 45 43 44 46 45
6 5 6 7 9 11 12 15 16 18 20 21 23 25 26 27 29 30 32 35 37 38 39 41 44 47 45 44 46 50 50 50 50 49 49 53 51 49 44 42 43 43 42
1 3 6 8 10 12 14 16 18 19 21 22 24 25 27 28 29 30 32 33 34 35 35 35 38 42 40 40 44 48 52 55 51 52 49 49 48 47 43 41 42 41 45
3 5 9 10 12 14 15 16 17 19 20 21 23 25 27 28 30 30 32 34 37 38 38 38 37 38 40 42 45 47 51 55 52 54 53 48 46 46 42 39 40 41 43
4 6 7 9 11 12 14 16 18 19 21 22 24 26 27 27 29 29 30 32 35 38 40 41 41 42 43 42 41 40 41 49 54 50 51 49 43 43 42 37 39 39 40
4 5 7 9 11 13 15 16 18 19 20 22 23 26 28 28 29 30 30 29 31 33 37 39 40 39 38 34 32 33 35 34 32 27 30 36 37 36 36 34 33 37 39
4 5 8 10 11 13 14 16 18 20 20 22 21 26 28 28 30 31 31 30 31 30 31 32 33 33 32 30 28 27 28 27 26 23 22 24 24 26 27 27 28 29 31
4 5 7 9 11 13 15 17 18 19 20 21 21 23 26 24 28 31 31 32 33 32 32 31 30 28 29 31 32 33 34 34 32 29 26 20 20 20 17 17 18 19 21
4 6 7 9 12 14 16 18 19 19 18 19 19 19 25 22 25 26 27 27 30 30 30 29 30 31 33 35 35 36 37 36 36 34 31 28 24 19 19 15 12 11 12
4 6 8 10 12 13 14 15 16 17 18 19 18 17 21 18 21 24 26 25 27 27 27 28 30 32 33 35 37 37 37 38 37 35 33 31 30 29 23 18 15 11 8
5 7 9 11 13 15 17 17 15 14 16 19 19 20 20 20 21 25 25 24 25 24 27 28 30 31 32 32 33 34 36 35 34 34 33 33 31 29 28 25 21 16 13
5 8 10 12 14 15 16 17 18 18 17 17 18 19 21 20 22 25 25 23 23 25 27 28 29 30 31 32 32 33 33 33 33 32 32 32 31 30 30 27 25 22 17
6 8 10 12 13 14 15 15 16 17 18 18 18 18 18 19 22 24 24 26 27 27 27 27 28 29 29 30 30 30 31 31 31 30 29 29 30 29 28 26 23 20 16
8 10 11 12 13 14 14 14 15 16 17 18 20 22 24 23 24 25 26 26 26 26 27 27 27 27 28 29 29 29 29 30 30 30 29 28 27 26 26 25 24 23 20
9 11 12 13 14 14 14 15 15 16 17 18 19 20 22 24 24 25 25 26 26 27 27 27 27 27 27 28 28 28 28 28 27 27 27 27 27 27 24 22 21 20 19
11 12 13 14 14 15 15 15 15 16 17 18 18 19 20 21 23 24 24 25 25 25 26 27 27 27 28 28 28 27 26 26 26 26 26 26 26 26 24 22 21 19 19
13 14 14 15 15 16 16 16 16 16 17 18 18 19 20 21 22 23 24 24 24 24 25 26 26 26 26 25 25 26 25 24 24 24 25 26 25 25 23 22 22 20 19
14 15 15 15 16 16 16 17 17 17 18 18 19 20 21 21 22 22 23 23 24 25 25 25 26 26 25 24 24 23 22 21 20 20 22 23 23 22 21 20 19 19 18
16 16 16 16 17 17 17 18 18 18 18 19 20 20 21 22 23 23 24 24 25 25 25 25 25 26 26 25 23 22 22 20 17 18 20 20 19 19 17 17 17 16 16
17 17 17 18 18 18 18 18 19 19 19 20 20 20 21 22 23 24 24 25 25 25 25 25 25 25 25 24 24 24 23 21 19 17 17 15 14 12 13 14 15 15 16
Wind_Direction
33 17 360 349 343 337 329 323 322 323 324 328 330 332 334 333 332 330 328 323 316 311 308 304 300 296 291 286 286 285 291 294 275 285 284 279 285 276 278 283 282 279 279
351 343 338 334 333 331 331 330 331 339 344 343 343 343 345 344 340 337 333 330 328 325 322 317 312 307 302 300 298 291 289 287 283 298 296 284 275 288 278 278 279 277 278
353 342 335 334 332 333 337 346 350 347 348 349 351 350 349 346 342 338 333 329 327 326 325 323 321 318 314 310 306 300 296 292 287 284 288 280 291 289 289 274 281 284 282
342 334 330 334 336 338 347 353 354 357 354 356 357 357 355 352 346 339 334 330 328 326 325 323 320 318 314 311 307 304 303 302 298 292 285 287 283 279 289 293 273 283 280
346 337 339 330 349 350 352 358 358 2 3 3 2 1 358 353 348 341 335 331 330 327 326 324 321 319 317 313 309 305 302 301 300 299 292 289 283 281 274 284 284 280 269
306 323 339 349 352 353 1 9 8 7 7 7 3 2 359 355 349 346 339 335 332 331 329 325 322 320 318 314 312 308 298 294 292 289 290 286 286 281 282 280 281 276 267
312 330 347 356 0 7 8 9 7 6 7 7 6 3 1 355 348 345 340 336 333 332 329 326 323 320 318 316 312 308 305 297 289 288 288 284 285 284 280 276 273 269 272
298 344 5 13 16 16 10 10 9 5 4 5 6 3 0 357 350 345 339 336 334 333 332 330 326 323 322 319 313 307 300 295 292 288 285 286 285 285 280 275 272 270 265
287 14 30 27 23 19 15 11 9 6 8 10 6 4 1 358 354 350 346 342 340 338 335 332 326 322 320 318 312 303 298 293 293 290 286 284 281 277 275 271 260 260 260
64 39 31 23 20 18 14 10 8 9 6 5 5 3 2 360 359 357 355 349 346 346 343 340 335 326 319 315 315 312 305 297 294 290 289 282 278 275 268 262 257 251 252
67 43 29 19 17 15 9 5 6 5 4 2 2 2 1 359 356 355 355 350 349 347 346 344 342 336 328 322 313 307 300 293 292 287 284 284 278 273 267 262 258 253 249
80 46 22 15 13 12 8 4 3 1 360 359 356 358 358 357 355 353 354 352 350 349 349 348 344 341 337 332 321 311 308 306 304 306 298 289 285 281 271 263 257 250 249
66 34 18 13 9 7 4 2 2 2 0 359 356 355 353 352 350 349 350 349 351 351 351 348 344 345 347 350 351 351 351 349 346 338 338 324 302 293 287 276 262 258 251
51 26 18 12 9 9 8 6 2 360 358 356 356 349 349 351 350 347 347 345 348 350 350 347 350 353 356 358 359 4 10 12 12 7 359 350 348 337 321 302 284 267 259
35 22 14 8 6 6 4 0 358 355 352 349 350 344 341 351 347 345 346 347 347 349 345 343 349 356 0 2 6 7 8 11 14 14 13 13 13 15 12 354 327 303 279
23 9 2 358 356 356 356 357 353 348 343 341 338 344 340 345 345 347 349 350 346 345 347 354 359 3 6 5 5 6 9 10 11 15 15 17 20 20 18 22 25 13 0
6 355 353 353 352 350 349 347 348 351 345 338 338 338 342 342 346 348 351 352 348 350 358 3 5 5 4 3 3 5 5 9 9 11 16 17 17 24 24 24 26 39 44
350 349 350 347 346 347 346 346 346 346 347 344 341 344 344 344 349 347 348 348 354 2 5 4 4 4 3 3 2 1 1 3 7 10 12 15 18 19 22 30 28 33 41
339 340 340 340 341 341 343 342 340 340 342 343 343 343 345 349 349 346 349 354 358 360 1 1 359 358 358 359 359 1 1 3 3 4 9 12 13 14 16 21 23 31 37
326 328 330 331 333 335 336 334 335 336 339 342 344 344 343 348 348 349 350 352 353 354 355 355 354 353 352 353 354 355 357 359 1 3 5 6 9 11 11 12 12 13 19
310 314 317 322 326 328 329 330 331 333 336 339 341 342 342 343 345 346 347 349 349 349 350 349 349 349 348 348 348 350 352 353 354 357 360 2 3 2 1 3 5 5 4
304 309 313 318 322 324 325 324 327 329 331 333 335 337 338 338 339 341 343 344 345 345 344 344 344 344 343 343 343 345 347 347 347 348 352 354 355 357 358 359 357 356 357
299 304 309 313 315 315 316 318 320 322 324 327 330 332 334 335 336 337 339 339 339 340 339 339 338 338 338 338 338 338 340 342 342 341 343 345 347 350 353 355 356 357 358
296 299 300 302 304 307 310 312 314 316 318 322 325 327 330 333 334 335 336 336 336 336 336 336 334 333 334 333 333 334 334 335 334 334 333 336 341 343 344 346 349 352 353
292 294 294 296 299 302 305 307 309 311 314 317 320 323 326 328 331 333 333 334 333 333 333 333 332 330 330 331 330 330 329 329 326 322 329 329 333 336 343 346 349 352 353
291 291 291 292 295 298 301 304 305 307 310 312 315 318 321 324 327 330 330 330 330 330 331 331 330 329 329 329 328 327 326 325 323 327 315 320 331 342 349 353 355 354 355